When you browse on this site, cookies collect data to enhance your experience and personalize the content and advertising you see.
Visit our Privacy Policy to learn more. By continuing to use the site, you agree to this use of cookies and data.
  • In Österreich
  • Länderverzeichnis
  • Für 7 Tage
  • Wassertemperatur
  • Satellitenkarten
  • Wetterkarte
  • News
  • Widgets
  • user-avatar
    Anmelden

    Stündliche Wetter Asadabad

    Heute, 27 Juni, Donnerstag

    Zeit Temperatur Niederschläge Wind Luftdruck Luftfeuchtigkeit
    00:00 +26°C° 0 mm 2 m/S 655 mmHg 30%
    01:00 +26°C° 0 mm 2 m/S 654 mmHg 30%
    02:00 +25°C° 0 mm 2 m/S 654 mmHg 30%
    03:00 +25°C° 0 mm 3 m/S 654 mmHg 30%
    04:00 +24°C° 0 mm 3 m/S 654 mmHg 31%
    05:00 +24°C° 0 mm 3 m/S 653 mmHg 32%
    06:00 +26°C° 0 mm 3 m/S 654 mmHg 29%
    07:00 +27°C° 0 mm 2 m/S 655 mmHg 27%
    08:00 +29°C° 0 mm 2 m/S 655 mmHg 24%
    09:00 +30°C° 0 mm 2 m/S 655 mmHg 23%
    10:00 +32°C° 0 mm 1 m/S 656 mmHg 21%
    11:00 +33°C° 0 mm 1 m/S 656 mmHg 20%
    12:00 +34°C° 0 mm 2 m/S 655 mmHg 19%
    13:00 +35°C° 0 mm 2 m/S 655 mmHg 18%
    14:00 +35°C° 0 mm 2 m/S 655 mmHg 17%
    15:00 +35°C° 0 mm 2 m/S 655 mmHg 17%
    16:00 +35°C° 0 mm 2 m/S 654 mmHg 17%
    17:00 +35°C° 0 mm 2 m/S 654 mmHg 17%
    18:00 +33°C° 0 mm 1 m/S 654 mmHg 22%
    19:00 +31°C° 0 mm 1 m/S 653 mmHg 27%
    20:00 +29°C° 0 mm 1 m/S 653 mmHg 32%
    21:00 +28°C° 0 mm 2 m/S 653 mmHg 31%
    22:00 +28°C° 0 mm 2 m/S 653 mmHg 30%
    23:00 +27°C° 0 mm 3 m/S 653 mmHg 30%

    Morgen, 28 Juni, Freitag

    Zeit Temperatur Niederschläge Wind Luftdruck Luftfeuchtigkeit
    00:00 +27°C° 0 mm 3 m/S 653 mmHg 30%
    01:00 +26°C° 0 mm 3 m/S 653 mmHg 29%
    02:00 +25°C° 0 mm 3 m/S 653 mmHg 29%
    03:00 +25°C° 0 mm 3 m/S 653 mmHg 29%
    04:00 +25°C° 0 mm 3 m/S 653 mmHg 29%
    05:00 +24°C° 0 mm 3 m/S 652 mmHg 30%
    06:00 +26°C° 0 mm 3 m/S 653 mmHg 27%
    07:00 +28°C° 0 mm 2 m/S 654 mmHg 25%
    08:00 +30°C° 0 mm 2 m/S 655 mmHg 23%
    09:00 +31°C° 0 mm 2 m/S 655 mmHg 21%
    10:00 +32°C° 0 mm 2 m/S 655 mmHg 19%
    11:00 +35°C° 0 mm 2 m/S 655 mmHg 18%
    12:00 +35°C° 0 mm 2 m/S 655 mmHg 17%
    13:00 +36°C° 0 mm 2 m/S 655 mmHg 16%
    14:00 +37°C° 0 mm 3 m/S 654 mmHg 15%
    15:00 +37°C° 0 mm 2 m/S 654 mmHg 15%
    16:00 +37°C° 0 mm 2 m/S 654 mmHg 14%
    17:00 +36°C° 0 mm 1 m/S 654 mmHg 14%
    18:00 +34°C° 0 mm 1 m/S 653 mmHg 18%
    19:00 +32°C° 0 mm 1 m/S 653 mmHg 22%
    20:00 +30°C° 0 mm 1 m/S 653 mmHg 27%
    21:00 +29°C° 0 mm 1 m/S 653 mmHg 27%
    22:00 +29°C° 0 mm 1 m/S 653 mmHg 27%
    23:00 +28°C° 0 mm 2 m/S 653 mmHg 28%

    übermorgen, 29 Juni, Samstag

    Zeit Temperatur Niederschläge Wind Luftdruck Luftfeuchtigkeit
    00:00 +28°C° 0 mm 2 m/S 653 mmHg 28%
    01:00 +27°C° 0 mm 2 m/S 653 mmHg 27%
    02:00 +27°C° 0 mm 3 m/S 653 mmHg 27%
    03:00 +26°C° 0 mm 3 m/S 652 mmHg 27%
    04:00 +26°C° 0 mm 3 m/S 652 mmHg 28%
    05:00 +25°C° 0 mm 3 m/S 652 mmHg 28%
    06:00 +27°C° 0 mm 2 m/S 653 mmHg 26%
    07:00 +29°C° 0 mm 2 m/S 653 mmHg 24%
    08:00 +31°C° 0 mm 1 m/S 654 mmHg 21%
    09:00 +33°C° 0 mm 1 m/S 654 mmHg 20%
    10:00 +34°C° 0 mm 1 m/S 654 mmHg 18%
    11:00 +36°C° 0 mm 2 m/S 654 mmHg 16%
    12:00 +37°C° 0 mm 2 m/S 654 mmHg 15%
    13:00 +37°C° 0 mm 3 m/S 654 mmHg 15%
    14:00 +38°C° 0 mm 4 m/S 654 mmHg 14%
    15:00 +37°C° 0 mm 4 m/S 654 mmHg 17%
    16:00 +36°C° 0 mm 4 m/S 654 mmHg 20%
    17:00 +35°C° 0 mm 5 m/S 654 mmHg 23%
    18:00 +33°C° 0 mm 5 m/S 654 mmHg 28%
    19:00 +30°C° 0 mm 4 m/S 653 mmHg 33%
    20:00 +28°C° 0 mm 4 m/S 653 mmHg 38%
    21:00 +28°C° 0 mm 4 m/S 653 mmHg 39%
    22:00 +27°C° 0 mm 4 m/S 653 mmHg 39%
    23:00 +26°C° 0 mm 4 m/S 653 mmHg 40%

    30 Juni, Sonntag

    Zeit Temperatur Niederschläge Wind Luftdruck Luftfeuchtigkeit
    00:00 +26°C° 0 mm 4 m/S 653 mmHg 39%
    01:00 +26°C° 0 mm 4 m/S 653 mmHg 38%
    02:00 +26°C° 0 mm 3 m/S 652 mmHg 36%
    03:00 +25°C° 0 mm 3 m/S 652 mmHg 36%
    04:00 +25°C° 0 mm 3 m/S 652 mmHg 37%
    05:00 +25°C° 0 mm 2 m/S 652 mmHg 37%
    06:00 +27°C° 0 mm 2 m/S 653 mmHg 33%
    07:00 +29°C° 0 mm 2 m/S 653 mmHg 29%
    08:00 +31°C° 0 mm 1 m/S 654 mmHg 25%
    09:00 +32°C° 0 mm 1 m/S 654 mmHg 23%
    10:00 +34°C° 0 mm 1 m/S 654 mmHg 21%
    11:00 +35°C° 0 mm 1 m/S 655 mmHg 19%
    12:00 +37°C° 0 mm 2 m/S 655 mmHg 18%
    13:00 +37°C° 0 mm 2 m/S 654 mmHg 18%
    14:00 +38°C° 0 mm 2 m/S 654 mmHg 17%
    15:00 +36°C° 0.1 mm 3 m/S 653 mmHg 24%
    16:00 +33°C° 0.1 mm 5 m/S 653 mmHg 31%
    17:00 +30°C° 0.1 mm 6 m/S 652 mmHg 38%
    18:00 +30°C° 0 mm 5 m/S 652 mmHg 40%
    19:00 +29°C° 0 mm 4 m/S 652 mmHg 41%
    20:00 +29°C° 0 mm 2 m/S 652 mmHg 42%
    21:00 +28°C° 0 mm 2 m/S 652 mmHg 40%
    22:00 +28°C° 0 mm 2 m/S 653 mmHg 39%
    23:00 +28°C° 0 mm 2 m/S 653 mmHg 37%

    1 Juli, Montag

    Zeit Temperatur Niederschläge Wind Luftdruck Luftfeuchtigkeit
    00:00 +28°C° 0 mm 3 m/S 653 mmHg 35%
    01:00 +28°C° 0 mm 3 m/S 652 mmHg 34%
    02:00 +27°C° 0 mm 3 m/S 652 mmHg 32%
    03:00 +27°C° 0 mm 3 m/S 652 mmHg 32%
    04:00 +27°C° 0 mm 3 m/S 652 mmHg 31%
    05:00 +26°C° 0 mm 3 m/S 652 mmHg 31%
    06:00 +28°C° 0 mm 2 m/S 653 mmHg 28%
    07:00 +30°C° 0 mm 2 m/S 654 mmHg 25%
    08:00 +34°C° 0 mm 2 m/S 654 mmHg 22%
    09:00 +35°C° 0 mm 2 m/S 655 mmHg 21%
    10:00 +36°C° 0 mm 2 m/S 655 mmHg 19%
    11:00 +37°C° 0 mm 2 m/S 655 mmHg 18%
    12:00 +38°C° 0 mm 2 m/S 655 mmHg 17%
    13:00 +39°C° 0 mm 2 m/S 655 mmHg 16%
    14:00 +39°C° 0 mm 3 m/S 655 mmHg 15%
    15:00 +39°C° 0 mm 3 m/S 654 mmHg 15%
    16:00 +39°C° 0 mm 3 m/S 654 mmHg 15%
    17:00 +39°C° 0 mm 3 m/S 654 mmHg 15%
    18:00 +37°C° 0 mm 2 m/S 654 mmHg 20%
    19:00 +35°C° 0 mm 2 m/S 654 mmHg 24%
    20:00 +32°C° 0 mm 1 m/S 653 mmHg 28%
    21:00 +31°C° 0 mm 1 m/S 654 mmHg 28%
    22:00 +31°C° 0 mm 2 m/S 654 mmHg 27%
    23:00 +30°C° 0 mm 2 m/S 654 mmHg 26%

    2 Juli, Dienstag

    Zeit Temperatur Niederschläge Wind Luftdruck Luftfeuchtigkeit
    00:00 +29°C° 0 mm 2 m/S 654 mmHg 28%
    01:00 +29°C° 0 mm 2 m/S 654 mmHg 29%
    02:00 +28°C° 0 mm 2 m/S 654 mmHg 31%
    03:00 +28°C° 0 mm 2 m/S 654 mmHg 31%
    04:00 +27°C° 0 mm 2 m/S 654 mmHg 31%
    05:00 +27°C° 0 mm 2 m/S 654 mmHg 31%
    06:00 +29°C° 0 mm 2 m/S 654 mmHg 27%
    07:00 +31°C° 0 mm 1 m/S 655 mmHg 24%
    08:00 +33°C° 0 mm 1 m/S 656 mmHg 21%
    09:00 +34°C° 0 mm 1 m/S 656 mmHg 20%
    10:00 +37°C° 0 mm 2 m/S 656 mmHg 18%
    11:00 +38°C° 0 mm 2 m/S 656 mmHg 17%
    12:00 +39°C° 0 mm 2 m/S 656 mmHg 16%
    13:00 +39°C° 0 mm 3 m/S 656 mmHg 16%
    14:00 +40°C° 0 mm 3 m/S 656 mmHg 15%
    15:00 +40°C° 0 mm 3 m/S 655 mmHg 15%
    16:00 +40°C° 0 mm 3 m/S 655 mmHg 15%
    17:00 +40°C° 0 mm 3 m/S 655 mmHg 15%
    18:00 +38°C° 0 mm 2 m/S 654 mmHg 18%
    19:00 +35°C° 0 mm 1 m/S 654 mmHg 22%
    20:00 +33°C° 0 mm 1 m/S 654 mmHg 26%
    21:00 +32°C° 0 mm 1 m/S 654 mmHg 27%
    22:00 +32°C° 0 mm 1 m/S 654 mmHg 28%
    23:00 +31°C° 0 mm 1 m/S 654 mmHg 29%
    Mehr zeigen